Glendive, MT

8:08 PM MST on December 10, 2017 (GMT -0700)
Dawson Community

Weather History for KGDV - March, 2013

Change the Weather History Date:

Sunday, March 24, 2013

  Actual Average Record
Temperature  
Mean Temperature 10 °F -  
Max Temperature 19 °F 44 °F 69 °F (2007)
Min Temperature 0 °F 23 °F 0 °F (2013)
Degree Days  
Heating Degree Days 55    
Moisture  
Dew Point 6 °F    
Average Humidity 79    
Maximum Humidity 100    
Minimum Humidity 56    
Precipitation  
Precipitation 0.00 in - - ()
Sea Level Pressure  
Sea Level Pressure 30.29 in    
Wind  
Wind Speed 12 mph (NW)    
Max Wind Speed 20 mph    
Max Gust Speed 22 mph    
Visibility 8 miles    
Events      
Averages and records for this station are not official NWS values.
T = Trace of Precipitation, MM = Missing Value Source: NWS Daily Summary

Daily Weather History Graph

Daily Weather History Graph

Search for Another Location

Airport or City:

Trip Planner

Search our weather history database for the weather conditions in past years. The results will help you decide how hot, cold, wet, or windy it might be!

Date:

Astronomy

Mar. 24, 2013 Rise Set
Actual Time 6:53 AM MDT 7:17 PM MDT
Civil Twilight 6:23 AM MDT 7:48 PM MDT
Nautical Twilight 5:46 AM MDT 8:24 PM MDT
Astronomical Twilight 5:09 AM MDT 9:02 PM MDT
Moon 4:41 PM MDT (3/24) 5:14 AM MDT (3/24)
Length of Visible Light 13h 25m
Length of Day
12h 24m
Waxing Gibbous, 92% of the Moon is Illuminated
Mar 24
Waxing Gibbous
Mar 27
Full
Apr 2
Last Quarter
Apr 10
New
Apr 18
First Quarter

Hourly Weather History & Observations

Time (MDT) Temp. Windchill Dew Point Humidity Pressure Visibility Wind Dir Wind Speed Gust Speed Precip Events Conditions
12:15 AM 10.4 °F -2.4 °F 6.8 °F 85% 30.25 in 7.0 mi NW 9.2 mph - N/A   Clear
12:35 AM 10.4 °F -2.4 °F 6.8 °F 85% 30.25 in 3.0 mi NW 9.2 mph - N/A   Clear
12:55 AM 10.4 °F -3.3 °F 6.8 °F 85% 30.25 in 2.5 mi NW 10.4 mph - N/A   Clear
1:15 AM 10.4 °F -4.8 °F 6.8 °F 85% 30.25 in 5.0 mi WNW 12.7 mph - N/A   Clear
1:35 AM 10.4 °F -3.3 °F 6.8 °F 85% 30.24 in 5.0 mi NW 10.4 mph - N/A   Clear
1:55 AM 10.4 °F -3.3 °F 6.8 °F 85% 30.25 in 4.0 mi NW 10.4 mph - N/A   Clear
2:15 AM 8.6 °F -5.5 °F 3.2 °F 79% 30.25 in 5.0 mi WNW 10.4 mph - N/A   Partly Cloudy
2:35 AM 8.6 °F -5.5 °F 3.2 °F 79% 30.24 in 9.0 mi WNW 10.4 mph - N/A   Partly Cloudy
2:55 AM 6.8 °F -7.8 °F 3.2 °F 85% 30.24 in 10.0 mi West 10.4 mph - N/A   Clear
3:15 AM 8.6 °F -7.0 °F 5.0 °F 85% 30.23 in 10.0 mi WNW 12.7 mph - N/A   Clear
3:35 AM 8.6 °F -8.3 °F 5.0 °F 85% 30.23 in 10.0 mi WNW 15.0 mph - N/A   Clear
3:55 AM 8.6 °F -7.0 °F 3.2 °F 79% 30.23 in 10.0 mi WNW 12.7 mph - N/A   Partly Cloudy
4:15 AM 8.6 °F -7.0 °F 3.2 °F 79% 30.23 in 10.0 mi WNW 12.7 mph - N/A   Clear
4:35 AM 8.6 °F -7.7 °F 3.2 °F 79% 30.23 in 8.0 mi WNW 13.8 mph - N/A   Clear
4:55 AM 8.6 °F -7.7 °F 3.2 °F 79% 30.23 in 7.0 mi WNW 13.8 mph - N/A   Clear
5:15 AM 8.6 °F -8.3 °F 5.0 °F 85% 30.23 in 9.0 mi WNW 15.0 mph - N/A   Clear
5:35 AM 8.6 °F -8.3 °F 3.2 °F 79% 30.24 in 7.0 mi NW 15.0 mph - N/A   Clear
5:55 AM 10.4 °F -5.4 °F 5.0 °F 79% 30.24 in 7.0 mi NW 13.8 mph - N/A   Clear
6:15 AM 10.4 °F -4.1 °F 3.2 °F 73% 30.25 in 5.0 mi NW 11.5 mph - N/A   Clear
6:35 AM 8.6 °F -7.0 °F 5.0 °F 85% 30.25 in 6.0 mi NW 12.7 mph - N/A   Clear
6:55 AM 8.6 °F -7.0 °F 3.2 °F 79% 30.25 in 4.0 mi NW 12.7 mph - N/A   Clear
7:15 AM 8.6 °F -7.7 °F 3.2 °F 79% 30.25 in 8.0 mi NW 13.8 mph 17.3 mph N/A   Clear
7:35 AM 10.4 °F -6.6 °F 5.0 °F 79% 30.25 in 8.0 mi NW 16.1 mph - N/A   Clear
7:55 AM 10.4 °F -6.0 °F 5.0 °F 79% 30.26 in 5.0 mi NW 15.0 mph - N/A   Clear
8:15 AM 10.4 °F -7.7 °F 3.2 °F 73% 30.26 in 10.0 mi NW 18.4 mph 21.9 mph N/A   Clear
8:35 AM 10.4 °F -7.7 °F 5.0 °F 79% 30.26 in 9.0 mi NNW 18.4 mph - N/A   Clear
8:55 AM 10.4 °F -7.7 °F 6.8 °F 85% 30.26 in 3.0 mi NNW 18.4 mph 21.9 mph N/A   Clear
9:15 AM 10.4 °F -7.2 °F 6.8 °F 85% 30.27 in 3.0 mi NW 17.3 mph - N/A   Clear
9:35 AM 12.2 °F -3.1 °F 6.8 °F 79% 30.28 in 8.0 mi NW 13.8 mph - N/A   Clear
9:55 AM 12.2 °F -4.3 °F 6.8 °F 79% 30.28 in 5.0 mi NW 16.1 mph 19.6 mph N/A   Clear
10:15 AM 14.0 °F -2.5 °F 8.6 °F 79% 30.28 in 5.0 mi NW 17.3 mph - N/A   Clear
10:55 AM 15.8 °F -0.2 °F 8.6 °F 73% 30.29 in 9.0 mi NNW 17.3 mph - N/A   Mostly Cloudy
11:15 AM 15.8 °F 0.3 °F 8.6 °F 73% 30.29 in 1.8 mi NW 16.1 mph - N/A   Mostly Cloudy
11:35 AM 15.8 °F 0.9 °F 10.4 °F 79% 30.30 in 3.0 mi NW 15.0 mph - N/A   Scattered Clouds
11:55 AM 17.6 °F 3.7 °F 10.4 °F 73% 30.30 in 9.0 mi NW 13.8 mph - N/A   Partly Cloudy
12:15 PM 17.6 °F 3.7 °F 10.4 °F 73% 30.31 in 7.0 mi NW 13.8 mph - N/A   Mostly Cloudy
12:35 PM 17.6 °F 3.2 °F 10.4 °F 73% 30.30 in 6.0 mi NW 15.0 mph - N/A   Mostly Cloudy
1:15 PM 19.4 °F 4.5 °F 12.2 °F 74% 30.30 in 7.0 mi NW 17.3 mph - N/A   Mostly Cloudy
1:35 PM 19.4 °F 3.6 °F 12.2 °F 74% 30.31 in 3.0 mi NW 19.6 mph - N/A   Scattered Clouds
1:55 PM 19.4 °F 4.5 °F 12.2 °F 74% 30.31 in 3.0 mi NW 17.3 mph - N/A   Mostly Cloudy
2:35 PM 19.4 °F 6.0 °F 12.2 °F 74% 30.32 in 10.0 mi NW 13.8 mph - N/A   Clear
2:55 PM 19.4 °F 5.0 °F 12.2 °F 74% 30.32 in 7.0 mi NW 16.1 mph - N/A   Clear
3:35 PM 19.4 °F 5.5 °F 12.2 °F 74% 30.32 in 10.0 mi NW 15.0 mph - N/A   Clear
3:55 PM 19.4 °F 5.5 °F 12.2 °F 74% 30.32 in 7.0 mi NW 15.0 mph - N/A   Partly Cloudy
4:15 PM 19.4 °F 5.0 °F 12.2 °F 74% 30.32 in 10.0 mi NW 16.1 mph - N/A   Clear
4:35 PM 19.4 °F 5.0 °F 12.2 °F 74% 30.32 in 10.0 mi NW 16.1 mph - N/A   Clear
4:55 PM 19.4 °F 6.0 °F 12.2 °F 74% 30.33 in 10.0 mi NW 13.8 mph - N/A   Clear
5:15 PM 19.4 °F 5.0 °F 12.2 °F 74% 30.33 in 10.0 mi NW 16.1 mph - N/A   Clear
5:35 PM 19.4 °F 6.0 °F 12.2 °F 74% 30.33 in 10.0 mi NW 13.8 mph - N/A   Clear
5:55 PM 17.6 °F 4.3 °F 10.4 °F 73% 30.33 in 10.0 mi NW 12.7 mph - N/A   Clear
6:15 PM 17.6 °F 5.0 °F 10.4 °F 73% 30.33 in 10.0 mi NW 11.5 mph - N/A   Clear
6:35 PM 17.6 °F 5.0 °F 10.4 °F 73% 30.33 in 10.0 mi NW 11.5 mph - N/A   Clear
6:55 PM 15.8 °F 5.1 °F 8.6 °F 73% 30.33 in 10.0 mi NNW 8.1 mph - N/A   Clear
7:15 PM 14.0 °F 2.0 °F 8.6 °F 79% 30.33 in 10.0 mi NW 9.2 mph - N/A   Clear
7:35 PM 12.2 °F -0.2 °F 8.6 °F 85% 30.33 in 10.0 mi NNW 9.2 mph - N/A   Clear
7:55 PM 10.4 °F -3.3 °F 5.0 °F 79% 30.33 in 10.0 mi NNW 10.4 mph - N/A   Clear
8:15 PM 10.4 °F -1.5 °F 5.0 °F 79% 30.34 in 10.0 mi NNW 8.1 mph - N/A   Clear
8:35 PM 8.6 °F -3.7 °F 1.4 °F 73% 30.34 in 10.0 mi NNW 8.1 mph - N/A   Clear
8:55 PM 8.6 °F -2.6 °F 5.0 °F 85% 30.34 in 10.0 mi NNW 6.9 mph - N/A   Clear
9:15 PM 8.6 °F -1.3 °F 6.8 °F 92% 30.34 in 10.0 mi NW 5.8 mph - N/A   Clear
9:35 PM 8.6 °F -1.3 °F 8.6 °F 100% 30.34 in 10.0 mi NW 5.8 mph - N/A   Clear
9:55 PM 3.2 °F -7.8 °F -9.4 °F 56% 30.34 in 10.0 mi WNW 5.8 mph - N/A   Partly Cloudy
10:15 PM 3.2 °F -7.8 °F -0.4 °F 85% 30.34 in 10.0 mi WNW 5.8 mph - N/A   Partly Cloudy
10:55 PM 3.2 °F -4.2 °F -2.2 °F 78% 30.34 in 10.0 mi WNW 3.5 mph - N/A   Clear
11:15 PM 3.2 °F -6.2 °F -4.0 °F 72% 30.34 in 10.0 mi NW 4.6 mph - N/A   Clear
11:35 PM 1.4 °F -11.3 °F -0.4 °F 92% 30.34 in 10.0 mi NW 6.9 mph - N/A   Clear
11:55 PM -0.4 °F -12.0 °F -7.6 °F 72% 30.34 in 10.0 mi NW 5.8 mph - N/A   Clear